Probability
4 5 6 6 6 4 1 0 0 0 0 0 0 0 0 0 0 0 0 1 3 5 3 2 1 0 0 0 0 0 0 0 0 0 0 0 0 0 1 1 1 1 1
3 3 4 5 5 3 2 1 0 0 0 0 0 0 0 0 0 0 0 1 3 3 2 1 0 0 0 0 0 0 0 0 0 0 0 0 0 0 1 2 3 3 2
2 1 1 2 2 2 2 1 0 0 0 0 0 0 0 0 0 0 0 0 1 1 1 0 1 1 1 1 0 0 0 0 1 1 1 1 0 0 1 2 3 3 2
1 1 0 0 0 0 1 1 0 0 0 0 0 0 0 0 1 0 0 0 0 0 0 1 2 2 2 2 1 1 1 1 2 2 2 1 0 0 0 1 1 1 1
1 1 0 0 0 0 0 0 0 0 0 0 0 0 0 0 0 0 0 0 0 0 0 1 1 2 3 3 2 2 2 1 2 2 1 1 0 0 0 0 0 0 0
2 2 1 0 0 0 0 0 0 0 0 0 1 1 1 0 0 0 0 0 0 0 0 0 0 1 2 3 2 2 1 1 1 1 0 1 1 0 0 0 0 0 0
5 4 2 1 2 3 2 1 1 0 0 0 1 2 1 1 0 0 0 0 0 0 1 1 0 1 2 2 1 1 1 1 1 1 1 2 2 1 0 0 0 0 0
8 7 4 3 5 6 4 3 2 1 0 0 1 2 1 1 1 0 0 0 0 0 1 1 0 0 1 1 0 0 1 2 2 1 1 3 3 2 0 0 0 0 0
10 10 8 6 6 7 6 5 3 1 0 0 0 0 0 0 0 0 0 0 0 0 1 1 0 0 0 0 0 0 1 2 2 3 3 3 3 2 1 1 0 0 0
11 10 9 8 7 7 7 7 5 2 1 0 0 0 0 0 0 0 0 0 0 0 0 0 0 0 0 0 0 0 0 1 1 3 4 4 4 3 2 2 1 1 1
10 10 9 9 9 9 9 8 7 4 2 1 0 0 0 0 0 0 0 0 0 1 0 0 0 0 0 0 0 0 0 0 0 1 2 3 3 3 3 3 3 2 2
11 10 9 9 9 9 9 9 8 7 5 2 0 0 0 0 0 0 0 0 0 0 0 0 0 0 0 0 0 0 0 0 0 0 1 1 2 3 3 3 3 3 3
11 9 8 7 7 7 7 8 8 8 6 3 1 0 0 0 0 0 0 0 0 0 0 0 0 0 0 0 0 0 0 0 0 0 0 0 1 1 2 3 3 3 3
9 8 7 6 6 6 6 6 6 6 6 4 1 0 0 0 0 0 0 0 0 0 0 0 0 0 0 0 0 0 0 0 0 0 0 0 0 0 1 2 2 2 2
7 7 7 6 6 6 5 4 4 4 5 5 3 1 0 0 0 0 0 0 0 0 0 0 0 0 0 0 0 0 0 0 0 0 0 0 0 0 0 1 1 1 1
6 7 7 6 6 5 4 3 3 3 4 4 4 2 1 0 0 0 0 0 0 0 0 0 0 0 0 0 0 0 0 0 0 0 0 0 0 0 0 0 0 0 0
6 7 7 7 6 5 4 3 3 3 3 3 4 3 1 0 0 0 0 0 0 0 0 0 0 0 0 0 0 0 0 0 0 0 0 0 0 0 0 0 0 0 0
5 6 7 7 7 5 4 3 3 4 3 3 3 3 2 1 0 0 0 0 0 0 0 0 0 0 0 0 0 0 0 0 0 0 0 0 0 0 0 0 0 0 0
6 7 7 7 7 6 5 4 4 5 4 3 3 3 2 1 0 0 0 0 0 0 0 0 0 0 0 0 0 0 0 0 0 0 0 0 0 0 0 0 0 0 0
7 7 7 7 6 6 6 6 6 6 6 4 3 2 1 1 0 0 0 0 0 0 0 0 0 0 0 0 0 0 0 0 0 0 0 0 0 0 0 0 0 0 0
6 6 7 7 7 7 7 7 8 8 7 4 2 1 0 0 0 0 0 0 0 0 0 0 0 0 0 0 0 0 0 0 0 0 0 0 0 0 0 0 0 0 0
3 5 6 7 7 8 6 5 6 8 8 5 2 1 0 0 0 0 0 0 0 0 0 0 0 0 0 0 0 0 0 0 0 0 0 0 0 0 0 0 0 0 0
2 3 4 5 6 7 5 2 2 5 6 5 3 2 1 1 0 0 0 0 0 0 0 0 0 0 0 0 0 0 0 0 0 0 0 0 0 0 0 0 0 0 0
1 1 3 4 4 5 4 1 0 2 4 4 3 3 3 2 1 0 0 0 0 0 0 0 0 0 0 0 0 0 0 0 0 0 0 0 0 0 0 0 0 0 0
1 1 2 3 3 3 3 1 0 1 3 3 3 3 3 3 2 0 0 0 0 0 0 0 0 0 0 0 0 0 0 0 0 0 0 0 0 0 0 0 0 0 0
0 0 1 3 3 2 2 2 1 1 2 3 3 3 4 3 2 0 0 0 0 0 0 0 0 0 0 0 0 0 0 0 0 0 0 0 0 0 0 0 0 0 0
Wind_Speed
2 2 2 2 2 1 2 2 1 1 2 2 2 3 3 3 3 2 2 7 8 7 7 7 7 7 7 7 8 8 8 8 7 7 7 7 7 7 7 6 6 7 7
2 2 2 2 2 2 2 2 2 2 2 2 2 3 4 4 3 3 2 4 7 7 7 6 6 6 7 7 8 8 8 7 7 7 7 6 6 6 6 6 6 6 7
3 2 2 2 2 2 2 2 2 2 2 2 2 2 3 3 3 3 3 2 3 6 6 6 6 6 6 7 8 8 8 7 7 8 7 6 6 6 6 6 6 6 6
4 3 2 2 2 2 2 2 2 2 2 2 1 1 2 2 3 3 3 3 2 2 4 6 6 6 6 7 8 8 7 7 7 7 7 7 6 6 6 6 6 6 6
4 3 3 2 2 2 2 2 2 2 2 2 1 1 1 2 2 3 3 3 3 2 2 4 6 6 6 6 7 8 8 7 7 7 7 6 6 6 6 6 5 5 6
4 3 2 2 3 2 2 2 2 1 2 2 2 1 0 1 1 2 3 3 2 3 3 2 2 3 6 6 7 8 8 8 7 7 7 6 6 5 5 6 6 5 6
4 4 3 3 3 3 3 3 2 2 1 1 3 2 2 1 0 1 1 2 2 3 3 3 2 1 2 5 6 7 8 8 8 8 7 7 6 6 6 5 6 6 6
4 4 4 3 3 3 3 2 3 2 1 1 3 2 1 3 2 0 1 1 2 1 2 3 2 2 2 1 3 7 7 7 8 7 7 7 6 6 6 6 5 5 6
4 4 4 4 3 4 3 3 3 3 2 1 2 4 3 2 2 2 1 1 1 1 2 2 3 3 3 2 2 4 7 7 7 8 8 7 6 6 6 6 5 5 6
4 4 4 4 4 3 4 4 3 3 3 2 1 1 2 4 3 0 2 1 1 1 2 2 2 3 3 2 2 4 6 6 7 8 7 7 7 6 6 6 5 5 5
3 4 4 4 3 3 3 3 3 3 3 3 2 1 1 1 2 3 1 2 2 1 1 2 2 2 2 2 2 4 6 6 6 7 7 7 7 7 7 6 6 6 6
2 3 3 3 3 3 3 3 3 3 3 3 2 2 2 2 2 2 2 2 1 2 1 1 1 2 2 2 4 6 6 6 6 7 7 7 7 7 7 7 7 6 6
2 3 3 3 3 3 3 3 3 3 3 3 3 2 2 2 2 3 3 2 1 1 1 1 1 2 2 2 3 6 6 6 6 7 7 7 7 8 8 7 7 7 7
3 3 4 4 3 3 3 3 2 3 2 2 3 2 2 2 2 3 3 3 1 1 1 2 1 2 2 2 3 6 4 6 7 6 6 7 7 7 7 7 7 7 6
3 3 4 4 4 4 4 3 3 3 2 2 2 2 2 2 2 2 3 4 4 2 2 3 1 2 2 2 3 3 3 5 7 7 6 6 7 7 6 6 6 6 6
3 3 3 3 3 3 4 3 2 2 2 2 2 2 2 1 1 1 2 2 3 4 3 3 2 2 2 3 3 3 4 6 7 7 7 7 7 7 7 7 6 7 7
4 3 3 4 4 3 3 3 3 3 3 3 2 2 2 2 2 1 2 2 2 2 2 2 1 1 2 2 2 2 3 3 4 7 8 8 8 8 8 8 7 7 7
3 4 3 4 4 3 4 4 4 3 4 4 3 3 3 2 2 1 2 2 2 2 3 2 1 1 2 3 3 3 3 3 3 6 7 8 9 9 9 9 8 8 8
3 3 3 4 3 3 4 4 4 4 4 4 4 4 4 3 2 2 2 2 2 2 2 2 2 2 1 1 1 1 2 1 3 4 5 7 8 9 9 9 9 9 8
3 3 3 4 4 4 4 4 4 4 4 4 4 4 4 5 4 4 3 3 2 2 2 2 1 1 1 1 1 1 1 1 2 3 3 4 5 7 8 9 10 10 10
2 2 3 3 3 3 4 4 4 4 3 3 3 4 5 6 6 5 4 3 3 2 2 2 2 1 1 1 2 2 2 2 3 2 2 2 2 3 4 7 9 11 11
1 2 3 3 3 3 4 5 4 3 3 3 3 4 4 5 6 6 6 6 6 5 4 3 3 3 3 3 2 2 2 1 3 2 1 3 2 3 4 4 8 11 11
1 1 1 2 2 3 4 4 4 3 3 4 4 4 4 4 5 4 5 5 5 7 7 6 5 5 5 5 4 3 3 3 4 3 1 3 2 4 4 5 9 11 11
1 1 1 2 2 3 4 4 4 3 3 4 4 5 5 4 5 4 4 3 4 5 6 6 6 6 6 5 6 5 5 3 3 3 3 3 3 4 4 4 8 11 11
1 1 2 2 2 2 3 4 4 2 3 4 4 4 5 5 6 6 4 4 4 4 6 7 8 7 7 7 5 3 2 1 2 3 3 3 3 2 3 4 6 9 10
1 1 1 1 2 2 3 4 4 2 3 3 3 3 5 5 6 7 5 5 5 5 3 3 4 5 5 6 7 7 6 4 3 3 3 3 2 1 2 3 3 3 4
Wind_Direction
173 175 171 165 164 157 159 160 169 170 157 149 154 155 155 152 151 151 159 168 167 164 166 168 173 176 177 175 172 169 171 173 175 173 172 172 170 168 168 170 174 177 176
158 162 163 165 170 172 168 168 169 157 149 144 148 150 150 146 148 155 162 167 165 166 170 173 178 182 184 181 175 170 170 170 170 165 163 165 167 170 170 168 173 173 176
155 154 157 165 174 164 152 149 133 123 133 134 133 144 147 156 161 164 165 164 171 175 176 177 177 182 185 182 178 175 175 174 173 170 168 169 170 170 172 171 170 173 178
151 145 156 177 162 142 143 141 129 118 123 126 141 157 145 156 167 172 169 168 171 178 181 182 183 183 185 181 180 182 179 174 171 173 176 178 180 178 176 174 176 177 176
155 154 161 171 153 136 139 150 132 140 136 133 152 154 153 162 171 175 176 182 180 175 178 186 192 192 189 189 191 188 184 179 175 176 180 180 180 181 179 183 184 184 185
161 152 149 157 149 136 136 131 132 127 136 143 133 111 138 185 177 173 184 187 186 190 192 193 190 203 198 197 196 191 187 184 181 179 183 183 178 178 185 192 193 192 193
162 154 153 153 151 155 160 154 132 121 104 100 86 48 9 4 182 197 174 172 189 198 200 201 194 194 209 204 197 189 187 188 188 188 189 187 184 185 188 190 195 199 199
167 163 160 162 159 150 145 147 127 127 133 126 120 104 32 351 339 314 144 170 191 194 204 203 193 185 189 187 199 195 192 190 191 191 188 186 187 190 193 195 199 202 200
165 165 166 162 161 155 164 169 157 149 161 176 139 137 143 206 297 327 303 193 190 184 202 193 192 196 190 182 199 203 193 192 196 194 194 193 192 194 197 201 206 210 208
161 163 162 162 167 167 167 177 172 161 155 172 190 160 163 157 149 289 319 313 240 193 198 199 198 202 192 186 195 198 194 194 194 196 196 198 197 198 201 205 210 214 214
171 165 159 159 165 170 174 174 170 166 166 167 169 160 121 107 127 143 216 305 322 276 225 206 190 192 197 186 187 196 188 186 191 194 197 195 199 207 206 206 210 217 220
171 171 160 161 170 174 179 180 178 176 178 170 165 163 158 155 170 152 171 209 246 275 262 225 190 192 196 193 197 187 185 187 191 196 197 199 207 213 213 213 215 221 223
171 186 171 164 170 179 176 167 163 173 171 167 178 184 177 181 167 155 148 175 225 284 311 287 235 201 199 187 205 192 193 192 196 201 203 206 212 217 217 218 221 223 225
185 175 167 167 170 172 173 162 161 178 168 170 180 175 176 192 170 162 157 150 138 320 314 268 271 215 208 196 213 199 203 202 203 205 207 209 213 214 216 221 225 225 225
175 168 163 167 172 172 169 159 169 189 177 182 187 184 184 198 180 172 155 154 152 170 238 251 247 231 209 201 212 199 206 213 210 211 215 218 218 217 216 222 227 227 224
167 159 162 166 167 170 167 162 171 193 178 191 188 181 198 202 193 182 165 159 156 159 200 231 228 229 207 204 205 200 217 221 219 220 222 225 225 224 222 224 229 231 230
164 164 172 170 171 177 175 174 189 186 188 197 197 188 202 189 190 192 160 154 162 150 174 245 238 230 197 209 209 220 228 223 228 227 228 230 229 228 227 227 229 233 233
169 172 171 169 179 184 180 181 197 198 193 199 205 199 211 197 189 178 168 177 179 172 162 197 233 224 223 217 208 217 230 227 233 237 236 237 234 230 227 228 230 230 229
168 167 164 172 183 185 182 188 196 200 204 208 203 200 205 183 203 208 195 192 190 181 153 165 212 223 240 223 204 250 248 257 248 248 245 242 238 234 230 228 229 228 226
168 177 179 185 189 186 185 188 191 202 212 218 212 206 203 194 203 205 201 196 185 167 156 163 196 229 235 240 149 206 273 272 262 258 260 254 247 243 236 231 231 231 228
177 186 180 186 189 189 196 188 193 202 206 221 225 221 218 211 209 203 202 193 184 181 178 181 198 199 221 201 215 209 221 260 267 244 262 267 255 251 244 237 236 233 229
189 180 189 189 196 208 204 199 190 192 200 213 230 235 232 220 217 213 208 197 186 187 192 191 201 207 220 215 202 201 188 189 274 254 212 266 243 251 247 235 237 235 233
175 190 197 187 203 219 210 204 195 187 205 213 216 220 232 228 212 210 217 216 215 214 199 188 198 214 210 207 193 205 210 209 229 236 189 259 248 254 254 249 242 238 236
164 179 190 203 210 237 229 217 208 204 211 220 220 216 218 226 222 208 207 215 226 229 219 206 208 220 221 211 200 203 210 227 263 249 183 233 251 249 260 251 247 239 237
170 184 187 195 203 258 247 231 209 213 227 236 233 225 219 218 220 206 199 219 243 254 247 233 226 229 230 223 205 180 193 196 262 265 207 204 238 252 262 256 252 243 239
189 188 204 208 201 233 249 238 216 204 229 248 255 246 233 223 217 206 204 208 229 244 246 264 253 248 238 233 217 200 197 201 219 253 232 195 226 207 282 273 260 251 240